Location: Herronton
(50.6333°N, 113.4167°W)
Time: 10:37:23
(UTC+00:00)

Tiangong - Visible Passes

Search period start: 05 December 2021 00:00
Search period end: 15 December 2021 00:00
Orbit: 380 x 384 km, 41.5° (Epoch: 04 December)

Date Brightness Start Highest point End Pass type
(mag) Time Alt. Az. Time Alt. Az. Time Alt. Az.
11 Dec 4.2 02:19:52 10° SSW 02:19:53 10° SSW 02:19:53 10° SSW visible
12 Dec 3.6 01:19:58 10° SSW 01:21:21 12° SSE 01:22:09 11° SSE visible
13 Dec 3.6 01:54:57 10° SW 01:56:33 15° S 01:56:33 15° S visible
14 Dec 3.6 00:54:43 10° SSW 00:56:32 14° S 00:58:21 10° SE visible
14 Dec 4.3 02:30:43 10° SW 02:30:55 11° SW 02:30:55 11° SW visible
